Weather History for Cheyenne, WY

Change the Weather History Date:

Thursday, March 7, 2013

  Actual Average Record
Temperature  
Mean Temperature 43 °F 34 °F  
Max Temperature 59 °F 45 °F 65 °F (1879)
Min Temperature 26 °F 23 °F -5 °F (1932)
Degree Days  
Heating Degree Days 22 31  
Month to date heating degree days 202 223  
Since 1 July heating degree days 5135 5242  
Cooling Degree Days 0 0  
Month to date cooling degree days 0 0  
Year to date cooling degree days 0 0  
Moisture  
Dew Point 17 °F    
Average Humidity 40    
Maximum Humidity 63    
Minimum Humidity 16    
Precipitation  
Precipitation 0.00 in 0.03 in 0.45 in (1949)
Month to date precipitation 0.05 0.19  
Year to date precipitation 0.93 0.99  
Snow  
Snow 0.00 in 0.30 in 4.60 in (1932)
Month to date snowfall 1.0 2.2  
Since 1 July snowfall 39.4 38.7  
Snow Depth 0.00 in    
Sea Level Pressure  
Sea Level Pressure 29.89 in    
Wind  
Wind Speed 8 mph (SW)    
Max Wind Speed 22 mph    
Max Gust Speed 28 mph    
Visibility 10 miles    
Events      
T = Trace of Precipitation, MM = Missing Value Source: NWS Daily Summary

Daily Weather History Graph

Daily Weather History Graph

Search for Another Location

Airport:

Trip Planner

Search our weather history database for the weather conditions in past years. The results will help you decide how hot, cold, wet, or windy it might be!

Date:

Astronomy

Mar. 07, 2013 Rise Set
Actual Time 6:23 AM MST 5:57 PM MST
Civil Twilight 5:56 AM MST 6:24 PM MST
Nautical Twilight 5:24 AM MST 6:56 PM MST
Astronomical Twilight 4:52 AM MST 7:28 PM MST
Moon 3:27 AM MST (3/7) 1:46 PM MST (3/7)
Length of Visible Light 12h 28m
Length of Day
11h 33m
Waning Crescent, 19% of the Moon is Illuminated
Mar 7
Waning Crescent
Mar 11
New
Mar 19
First Quarter
Mar 27
Full
Apr 2
Last Quarter

Hourly Weather History & Observations

Time (MST) Temp. Windchill Dew Point Humidity Pressure Visibility Wind Dir Wind Speed Gust Speed Precip Events Conditions
12:53 AM 33.1 °F 26.1 °F 17.1 °F 52% 29.80 in 10.0 mi WNW 8.1 mph - N/A   Clear
1:53 AM 28.0 °F 19.3 °F 16.0 °F 61% 29.83 in 10.0 mi WNW 9.2 mph - N/A   Clear
2:53 AM 33.1 °F 25.5 °F 16.0 °F 50% 29.79 in 10.0 mi West 9.2 mph - N/A   Clear
3:53 AM 28.9 °F 25.2 °F 16.0 °F 58% 29.82 in 10.0 mi NW 3.5 mph - N/A   Clear
4:53 AM 30.9 °F - 17.1 °F 57% 29.85 in 10.0 mi Calm Calm - N/A   Clear
5:53 AM 28.0 °F 20.8 °F 16.0 °F 61% 29.92 in 10.0 mi SW 6.9 mph - N/A   Clear
6:53 AM 30.0 °F 26.5 °F 17.1 °F 59% 29.94 in 10.0 mi WNW 3.5 mph - N/A   Clear
7:53 AM 35.1 °F 29.3 °F 18.0 °F 50% 29.96 in 10.0 mi NW 6.9 mph - N/A   Clear
8:53 AM 45.0 °F 38.9 °F 21.0 °F 39% 29.94 in 10.0 mi NNW 12.7 mph - N/A   Clear
9:53 AM 50.0 °F - 21.0 °F 32% 29.92 in 10.0 mi Variable 4.6 mph - N/A   Clear
10:53 AM 52.0 °F - 16.0 °F 24% 29.90 in 10.0 mi ESE 10.4 mph 19.6 mph N/A   Clear
11:53 AM 55.0 °F - 12.9 °F 19% 29.90 in 10.0 mi SSE 15.0 mph 19.6 mph N/A   Clear
12:53 PM 57.9 °F - 12.9 °F 17% 29.85 in 10.0 mi SE 16.1 mph 26.5 mph N/A   Clear
1:53 PM 59.0 °F - 14.0 °F 17% 29.85 in 10.0 mi South 16.1 mph 21.9 mph N/A   Clear
2:53 PM 57.0 °F - 12.9 °F 18% 29.85 in 10.0 mi South 16.1 mph 21.9 mph N/A   Clear
3:53 PM 57.0 °F - 12.9 °F 18% 29.87 in 10.0 mi South 12.7 mph - N/A   Clear
4:53 PM 55.0 °F - 14.0 °F 20% 29.87 in 10.0 mi South 10.4 mph - N/A   Clear
5:53 PM 50.0 °F - 16.0 °F 26% 29.93 in 10.0 mi SSE 8.1 mph - N/A   Clear
6:53 PM 46.9 °F - 18.0 °F 32% 29.94 in 10.0 mi South 5.8 mph - N/A   Clear
7:53 PM 44.1 °F - 18.0 °F 35% 29.93 in 10.0 mi Calm Calm - N/A   Clear
8:53 PM 41.0 °F 38.0 °F 19.9 °F 43% 29.92 in 10.0 mi ESE 4.6 mph - N/A   Clear
9:53 PM 35.1 °F - 19.9 °F 54% 29.94 in 10.0 mi Calm Calm - N/A   Clear
10:53 PM 30.0 °F 22.4 °F 19.0 °F 64% 29.95 in 10.0 mi West 8.1 mph - N/A   Clear
11:53 PM 28.9 °F 25.2 °F 21.0 °F 72% 29.93 in 10.0 mi WNW 3.5 mph - N/A   Clear